Location: Lac Lasalle
(46.0398°N, 74.1576°W)
Time: 20:05:21
(UTC-05:00)

SEEDS - Visible Passes

Search period start: 14 December 2019 00:00
Search period end: 24 December 2019 00:00
Orbit: 585 x 604 km, 97.5° (Epoch: 13 December)

Date Brightness Start Highest point End Pass type
(mag) Time Alt. Az. Time Alt. Az. Time Alt. Az.
14 Dec ? 05:58:26 10° NNE 06:02:41 86° WNW 06:06:55 10° SSW visible
14 Dec ? 16:51:43 10° SSE 16:55:52 86° E 17:00:04 10° NNW visible
15 Dec ? 04:34:22 10° ENE 04:36:08 12° E 04:37:54 10° ESE visible
15 Dec ? 06:08:01 10° N 06:12:14 68° WNW 06:16:26 10° SSW visible
15 Dec ? 17:01:17 10° S 17:05:26 75° W 17:09:37 10° NNW visible
16 Dec ? 04:43:14 10° NE 04:45:48 16° E 04:48:21 10° SE visible
16 Dec ? 06:17:37 10° N 06:21:46 53° WNW 06:25:53 10° SSW visible
16 Dec ? 17:10:54 10° S 17:14:59 58° W 17:19:08 10° NNW visible
17 Dec ? 04:52:22 10° NE 04:55:27 19° E 04:58:32 10° SE visible
17 Dec ? 06:27:16 10° N 06:31:17 42° WNW 06:35:16 10° SW visible
17 Dec ? 17:20:36 10° S 17:24:34 45° W 17:28:37 10° NNW visible
18 Dec ? 05:01:37 10° NE 05:05:05 24° E 05:08:33 10° SSE visible
18 Dec ? 06:36:57 10° N 06:40:47 34° WNW 06:44:36 10° SW visible
18 Dec ? 17:30:21 10° SSW 17:34:10 35° W 17:38:03 10° NNW visible
19 Dec ? 05:10:57 10° NNE 05:14:42 30° E 05:18:27 10° SSE visible
19 Dec ? 06:46:40 10° N 06:50:16 27° WNW 06:53:52 10° SW visible
19 Dec ? 17:40:10 10° SSW 17:43:47 28° W 17:47:26 10° NW visible
20 Dec ? 05:20:21 10° NNE 05:24:19 38° E 05:28:16 10° SSE visible
20 Dec ? 06:56:26 10° NNW 06:59:45 23° WNW 07:03:03 10° WSW visible
20 Dec ? 17:50:05 10° SW 17:53:24 23° W 17:56:45 10° NW visible
21 Dec ? 05:29:47 10° NNE 05:33:54 48° E 05:38:00 10° S visible
21 Dec ? 18:00:08 10° SW 18:03:02 18° W 18:05:59 10° NW visible
22 Dec ? 05:39:16 10° NNE 05:43:29 61° E 05:47:41 10° S visible
22 Dec ? 18:10:20 10° SW 18:12:41 15° W 18:15:03 10° NW visible
23 Dec ? 05:48:47 10° NNE 05:53:03 78° ESE 05:57:18 10° S visible
23 Dec ? 16:42:05 10° SSE 16:46:13 70° ENE 16:50:25 10° N visible
23 Dec ? 18:20:54 10° WSW 18:22:21 12° W 18:23:49 10° WNW visible
